Weather History for Chamberlain, SD

Change the Weather History Date:

Monday, March 18, 2013

  Actual Average Record
Temperature  
Mean Temperature 23 °F -  
Max Temperature 33 °F 42 °F 88 °F (2012)
Min Temperature 14 °F 22 °F 14 °F (2013)
Degree Days  
Heating Degree Days 42    
Moisture  
Dew Point 7 °F    
Average Humidity 52    
Maximum Humidity 71    
Minimum Humidity 33    
Precipitation  
Precipitation 0.00 in - - ()
Sea Level Pressure  
Sea Level Pressure 29.95 in    
Wind  
Wind Speed 24 mph (NW)    
Max Wind Speed 31 mph    
Max Gust Speed 45 mph    
Averages and records for this station are not official NWS values.
T = Trace of Precipitation, MM = Missing Value Source: NWS Daily Summary

Daily Weather History Graph

Daily Weather History Graph

Search for Another Location

Airport:

Trip Planner

Search our weather history database for the weather conditions in past years. The results will help you decide how hot, cold, wet, or windy it might be!

Date:

Astronomy

Mar. 18, 2013 Rise Set
Actual Time 7:43 AM CDT 7:47 PM CDT
Civil Twilight 7:14 AM CDT 8:16 PM CDT
Nautical Twilight 6:41 AM CDT 8:49 PM CDT
Astronomical Twilight 6:07 AM CDT 9:24 PM CDT
Moon 11:33 AM CDT (3/18) 1:59 AM CDT (3/18)
Length of Visible Light 13h 01m
Length of Day
12h 04m
Waxing Crescent, 41% of the Moon is Illuminated
Mar 18
Waxing Crescent
Mar 19
First Quarter
Mar 27
Full
Apr 2
Last Quarter
Apr 10
New

Hourly Weather History & Observations

Time (CDT) Temp. Windchill Dew Point Humidity Pressure Visibility Wind Dir Wind Speed Gust Speed Precip Events Conditions
12:52 AM 30.0 °F 14.9 °F 21.0 °F 69% 29.70 in - WNW 29.9 mph 40.3 mph N/A   Unknown
1:52 AM 28.0 °F 13.6 °F 17.1 °F 63% 29.72 in - WNW 24.2 mph 39.1 mph N/A   Unknown
2:52 AM 24.1 °F 6.6 °F 12.0 °F 60% 29.79 in - NW 31.1 mph 44.9 mph N/A   Unknown
3:52 AM 21.9 °F 5.8 °F 10.0 °F 60% 29.83 in - WNW 23.0 mph 40.3 mph N/A   Unknown
4:52 AM 21.0 °F 3.0 °F 8.1 °F 57% 29.85 in - NW 28.8 mph 38.0 mph N/A   Unknown
5:52 AM 19.0 °F 2.0 °F 6.1 °F 57% 29.86 in - NW 23.0 mph 35.7 mph N/A   Unknown
6:52 AM 17.1 °F -1.4 °F 3.9 °F 56% 29.88 in - NW 25.3 mph 33.4 mph N/A   Unknown
7:52 AM 15.1 °F -4.0 °F 3.0 °F 59% 29.92 in - WNW 25.3 mph 38.0 mph N/A   Unknown
8:52 AM 14.0 °F -5.1 °F 1.9 °F 59% 29.94 in - NW 24.2 mph 36.8 mph N/A   Unknown
9:52 AM 14.0 °F -5.8 °F 1.0 °F 56% 29.96 in - NW 26.5 mph 38.0 mph N/A   Unknown
10:52 AM 18.0 °F -0.5 °F 3.9 °F 54% 29.98 in - NW 26.5 mph 36.8 mph N/A   Unknown
11:52 AM 21.0 °F 5.4 °F 3.9 °F 48% 29.99 in - NW 20.7 mph 36.8 mph N/A   Unknown
12:52 PM 25.0 °F 8.1 °F 5.0 °F 43% 29.98 in - WNW 29.9 mph 38.0 mph N/A   Unknown
1:52 PM 27.0 °F 11.9 °F 5.0 °F 39% 29.99 in - NW 25.3 mph 33.4 mph N/A   Unknown
2:52 PM 28.9 °F 14.8 °F 6.1 °F 38% 29.98 in - NW 24.2 mph 35.7 mph N/A   Unknown
3:52 PM 30.9 °F 15.9 °F 6.1 °F 35% 29.97 in - NW 31.1 mph 39.1 mph N/A   Unknown
4:52 PM 30.9 °F 18.4 °F 5.0 °F 33% 30.00 in - NW 20.7 mph 31.1 mph N/A   Unknown
5:52 PM 32.0 °F 20.5 °F 6.1 °F 34% 30.00 in - NW 18.4 mph 26.5 mph N/A   Unknown
6:52 PM 30.0 °F 19.5 °F 6.1 °F 36% 30.03 in - NNW 13.8 mph - N/A   Unknown
7:52 PM 27.0 °F 18.0 °F 7.0 °F 43% 30.05 in - NNW 9.2 mph - N/A   Unknown
8:52 PM 25.0 °F 18.1 °F 8.1 °F 49% 30.07 in - NNW 5.8 mph - N/A   Unknown
9:52 PM 23.0 °F 15.8 °F 8.1 °F 53% 30.08 in - North 5.8 mph - N/A   Unknown
10:52 PM 19.9 °F 8.6 °F 10.0 °F 65% 30.06 in - NNE 10.4 mph - N/A   Unknown
11:52 PM 17.1 °F 11.7 °F 9.0 °F 71% 30.11 in - SW 3.5 mph - N/A   Unknown